Regional Weather Roundup
Issued by NWS Upton, NY

Current Version | Previous Version | Text Only | Print | Product List | Glossary On
Versions: 1 2 3 4 5 6 7 8 9 10 11 12 13 14 15 16 17 18 19 20 21 22 23 24 25 26 27 28 29 30 31 32 33 34 35 36 37 38 39 40 41 42 43 44 45 46 47 48 49 50
000 ASUS41 KOKX 210105 RWROKX REGIONAL WEATHER ROUNDUP NATIONAL WEATHER SERVICE NEW YORK NY 900 PM EDT SAT SEP 20 2014 NOTE: "FAIR" INDICATES FEW OR NO CLOUDS BELOW 12,000 FEET WITH NO SIGNIFICANT WEATHER AND/OR OBSTRUCTIONS TO VISIBILITY. NYZ071-072-176-178-NJZ106-104-210200- NEW YORK CITY METRO AREA CITY SKY/WX TMP DP RH WIND PRES REMARKS CENTRAL PARK CLEAR 68 61 78 S5 30.14S LAGUARDIA APRT PTCLDY 69 62 78 S12 30.11S KENNEDY INTL MOCLDY 69 64 84 E3 30.13S NEWARK/LIBERTY PTCLDY 70 63 78 SE7 30.11S BRNX BOT. GARD N/A 68 61 77 SE5 30.12S TETERBORO CLEAR 70 61 73 S7 30.10S $$ NYZ177-179-078>081-210200- LONG ISLAND NEW YORK CITY SKY/WX TMP DP RH WIND PRES REMARKS FARMINGDALE CLOUDY 68 63 84 SE5 30.13S ISLIP MOCLDY 65 61 87 E5 30.13S SHIRLEY MOCLDY 63 59 87 CALM 30.15S WESTHAMPTON CLOUDY 61 56 83 CALM 30.16S MONTAUK POINT N/A 68 63 84 CALM 30.16F $$ NYZ052-065-067-210200- HUDSON VALLEY CITY SKY/WX TMP DP RH WIND PRES REMARKS WHITE PLAINS PTCLDY 63 60 90 SE5 30.13R NEWBURGH CLEAR 66 57 72 S7 30.11S MONTGOMERY CLEAR 62 57 83 CALM 30.10R POUGHKEEPSIE CLEAR 63 56 78 CALM 30.09S ALBANY PTCLDY 67 56 67 S14G21 30.03S $$ NJZ001-105-106-008-010-013-015-019>022-104-210200- NEW JERSEY CITY SKY/WX TMP DP RH WIND PRES REMARKS NEWARK/LIBERTY PTCLDY 70 63 78 SE7 30.11S TETERBORO CLEAR 70 61 73 S7 30.10S CALDWELL CLEAR 68 59 73 S7 30.11S MORRISTOWN CLEAR 64 57 77 CALM 30.11R SOMERVILLE CLEAR 66 56 70 SE5 30.09S LINDEN FAIR 73 65 75 S5 30.13S SUSSEX CLEAR 61 56 83 CALM 30.10S ANDOVER N/A 60 57 89 CALM 30.11R TRENTON CLEAR 67 57 70 SE5 30.11S MILLVILLE CLEAR 66 63 90 CALM 30.09F ATLANTIC CITY CLEAR 68 64 87 SE8 30.09F WRIGHTSTOWN CLEAR 63 62 96 E3 30.09S TOMS RIVER CLEAR 64 63 94 CALM 30.11F BELMAR MOCLDY 66 59 77 CALM 30.12S $$ PAZ047>061-062-071-210200- EASTERN PENNSYLVANIA CITY SKY/WX TMP DP RH WIND PRES REMARKS PHILADELPHIA CLEAR 69 61 75 SE5 30.10F ALLENTOWN CLEAR 69 57 65 SE5 30.09R SCRANTON CLEAR 67 55 65 CALM 30.05S $$ CTZ002-004>006-009-010-012-RIZ004-006-007-MAZ004-011-015-210200- SOUTHERN NEW ENGLAND IN CT CITY SKY/WX TMP DP RH WIND PRES REMARKS BRADLEY INTL CLEAR 61 54 77 S5 30.12S HARTFORD CLEAR 61 56 83 S5 30.13R DANBURY CLEAR 64 59 83 S7 30.14S WTRBRY/OXFORD PTCLDY 63 55 77 S8 30.14S BRIDGEPORT CLEAR 68 62 81 S7 30.13S MERIDEN CLEAR 58 54 86 CALM 30.13S NEW HAVEN CLEAR 69 61 75 S8 30.14R CHESTER FAIR 63 59 88 S5 30.15F GROTON CLEAR 65 61 87 S8 30.14S WILLIMANTIC CLEAR 58 54 86 CALM 30.15S IN RI CITY SKY/WX TMP DP RH WIND PRES REMARKS PROVIDENCE CLEAR 60 55 83 CALM 30.16S BLOCK ISLAND MOCLDY 64 57 77 S5 30.16S WESTERLY CLEAR 65 60 84 S6 30.16S IN MA CITY SKY/WX TMP DP RH WIND PRES REMARKS BOSTON PTCLDY 64 54 69 S10G22 30.14F WORCESTER CLEAR 59 54 83 SW8 30.15S WESTFIELD CLEAR 60 54 80 S3 30.11F PROVINCETOWN CLEAR 63 55 77 S6 30.18S NANTUCKET CLOUDY 64 58 80 SE9 30.18F $$ ANZ330-335-338-340-345-350-353-355-210200- COASTAL MARINE OBSERVATIONS STATION/POSITION TIME SKY/WX TEMP WIND PRES VSBY WAVE AIR SEA DIR/SP/G HT/PER (UTC) (F) (DEG/KT/KT) (MB) (MI) (FT/S) NY HARB ENTRANCE 0100 71 70 160/ 10/ 12 1020.3 4/ 6 4S FIRE IS 0100 69 N/A 4/ 9 20S FIRE ISLAND 0100 70 69 160/ 12/ 17 1020.4 4/ 9 23SW MTP 0100 N/A 4/ 5 HUDSON CANYON 0100 73 72 130/ 14/ 16 1019.9 5/ 9 EXECUTION ROCKS 0100 69 70 150/ 8/ 10 N/A WESTERN LI SOUND 0100 69 150/ 8/ 10 N/A 1 CENTRAL LI SOUND 0000 69 70 180/ 12/ 14 N/A 1/ 3 EASTERN LI SOUND 0000 68 68 180/ 6/ 8 N/A ROBBINS REEF 0100 69 150/ 11/ 12 1018.7 $$ >>>>>>>>>>>>>>>>>>>>>>>>>>>> KEY <<<<<<<<<<<<<<<<<<<<<<<<<<< > < > SKY/WX - SKY CONDITION/PRESENT WEATHER < > TMP - TEMPERATURE IN FAHRENHEIT < > DP - DEWPOINT IN FAHRENHEIT < > RH - RELATIVE HUMIDITY IN PERCENT < > WIND - DIRECTION AND SPEED IN MPH < > PRES - MEAN SEA LEVEL PRESSURE IN INCHES OF HG < > WCI - WIND CHILL INDEX < > VSB - VISIBILITY IN MILES < > HX - HEAT INDEX < > TC - TEMPERATURE IN CELSIUS < > VRB - VARIABLE WIND DIRECTION < > < >>>>>>>>>>>>>>>>>>>>>>>>>>>> KEY <<<<<<<<<<<<<<<<<<<<<<<<<<<

USA.gov is the U.S. government's official web portal to all federal, state and local government web resources and services.